Flag for U.S.A. Weather past 2 weeks in South Bend, Indiana, U.S.A.

Now
45 °F

Sunny.


Feels Like: 45 °F
Forecast: 35 / 65 °F
Wind: No wind

Location: Michiana Regional Airport

Current Time: Mar 31, 2015 at 8:15:12 PM

Latest Report: Mar 31, 2015 at 7:54 PM


Visibility: 10 mi

Pressure: 29.99 "Hg

Humidity: 63%

Dew point: 33 °F

Location of South BendLocation

Historic Weather in South Bend — Graph

°F

South Bend temperature yesterday

Maximum temperature yesterday: 59 °F (at 4:54 PM)
Minimum temperature yesterday: 33 °F (at 5:54 AM)
Average temperature yesterday: 47 °F

Past Weeks' High & Low Weather Summary

 TemperatureHumidityPressure
High68 °F (Mar 16, 6:54 PM)100% (Mar 25, 11:54 AM)30.37 "Hg (Mar 25, 11:54 AM)
Low12 °F (Mar 28, 6:54 AM)23% (Mar 18, 2:54 PM)29.70 "Hg (Mar 31, 4:54 AM)
Average37 °F61%30.14 "Hg
* Reported Mar 16 6:54 PM — Mar 31 6:54 PM, South Bend, Weather by CustomWeather, © 2015

Note: Actual official high and low records may vary slightly from our data, if they occured in-between our weather recording intervals... More about our weather records

Advertising

South Bend weather history for previous 24 hours

 ConditionsComfort  
Time TempWeatherWind HumidityBarometerVisibility
6:54 PM
Tue, Mar 31
48 °FSunny.9 mph56%29.99 "Hg10 mi
5:54 PM48 °FSunny.14 mph54%29.97 "Hg10 mi
4:54 PM49 °FScattered clouds.15 mph52%29.97 "Hg10 mi
3:54 PM50 °FScattered clouds.13 mph57%29.96 "Hg10 mi
2:54 PM49 °FBroken clouds.10 mph57%29.94 "Hg10 mi
1:54 PM48 °FOvercast.15 mph61%29.94 "Hg10 mi
12:54 PM44 °FBroken clouds.16 mph73%29.93 "Hg10 mi
11:54 AM43 °FLow clouds.16 mph82%29.90 "Hg10 mi
10:54 AM45 °FMostly cloudy.16 mph80%29.86 "Hg9 mi
10:01 AM42 °FBroken clouds.10 mph85%29.82 "Hg10 mi
8:54 AM44 °FSunny.8 mph73%29.78 "Hg10 mi
7:54 AM41 °FClear.9 mph76%29.75 "Hg10 mi
6:54 AM46 °FClear.13 mph63%29.71 "Hg10 mi
5:54 AM43 °FPassing clouds.9 mph71%29.70 "Hg10 mi
4:54 AM49 °FPassing clouds.9 mph59%29.70 "Hg10 mi
3:54 AM50 °FLight rain. Overcast.14 mph57%29.70 "Hg10 mi
2:54 AM51 °FPassing clouds.17 mph52%29.73 "Hg10 mi
1:54 AM47 °FMostly cloudy.8 mph71%29.78 "Hg10 mi
12:54 AM45 °FPassing clouds.9 mph80%29.85 "Hg10 mi
11:54 PM
Mon, Mar 30
46 °FOvercast.9 mph79%29.88 "Hg10 mi
10:54 PM46 °FPassing clouds.7 mph79%29.93 "Hg10 mi
9:54 PM47 °FPartly cloudy.No wind80%29.97 "Hg10 mi
8:54 PM49 °FLight rain. Overcast.8 mph71%30.01 "Hg10 mi
Weather by CustomWeather, © 2015

See weather overviewHow to use our weather pages